• In Czech Republic
  • List of Countries
  • For 7 days
  • Water Temperature
  • Satellite Maps
  • Weather Map
  • Weather Widgets
  • user-avatar
    Login

    Hourly Weather Zhuravinka

    Today, 21 April, Saturday

    Time Temperature Precipitation Wind Pressure Humidity
    00:00 +7°C° 0 mm 2 mps 738 mmHg 82%
    01:00 +7°C° 0 mm 3 mps 737 mmHg 83%
    02:00 +5°C° 0 mm 3 mps 737 mmHg 85%
    03:00 +5°C° 0 mm 3 mps 737 mmHg 84%
    04:00 +5°C° 0 mm 4 mps 736 mmHg 83%
    05:00 +5°C° 0 mm 4 mps 735 mmHg 83%
    06:00 +7°C° 0 mm 5 mps 735 mmHg 77%
    07:00 +8°C° 0 mm 6 mps 734 mmHg 72%
    08:00 +10°C° 0 mm 7 mps 734 mmHg 67%
    09:00 +12°C° 0 mm 7 mps 733 mmHg 62%
    10:00 +15°C° 0 mm 8 mps 732 mmHg 58%
    11:00 +16°C° 0 mm 9 mps 731 mmHg 53%
    12:00 +17°C° 0 mm 9 mps 730 mmHg 51%
    13:00 +18°C° 0 mm 10 mps 729 mmHg 49%
    14:00 +19°C° 0 mm 10 mps 728 mmHg 46%
    15:00 +18°C° 0 mm 10 mps 727 mmHg 49%
    16:00 +18°C° 0 mm 9 mps 726 mmHg 52%
    17:00 +17°C° 0 mm 9 mps 726 mmHg 54%
    18:00 +16°C° 0.8 mm 8 mps 725 mmHg 59%
    19:00 +15°C° 0.8 mm 8 mps 725 mmHg 64%
    20:00 +13°C° 0.8 mm 8 mps 724 mmHg 69%
    21:00 +11°C° 0.1 mm 8 mps 725 mmHg 68%
    22:00 +9°C° 0.1 mm 8 mps 725 mmHg 68%
    23:00 +7°C° 0.1 mm 8 mps 726 mmHg 67%

    Tomorrow, 22 April, Sunday

    Time Temperature Precipitation Wind Pressure Humidity
    00:00 +6°C° 0 mm 8 mps 726 mmHg 69%
    01:00 +5°C° 0 mm 8 mps 726 mmHg 70%
    02:00 +4°C° 0 mm 8 mps 727 mmHg 72%
    03:00 +4°C° 0 mm 8 mps 727 mmHg 72%
    04:00 +4°C° 0 mm 8 mps 727 mmHg 73%
    05:00 +4°C° 0 mm 8 mps 727 mmHg 73%
    06:00 +5°C° 0.1 mm 8 mps 728 mmHg 70%
    07:00 +5°C° 0.1 mm 9 mps 728 mmHg 67%
    08:00 +6°C° 0.1 mm 9 mps 728 mmHg 63%
    09:00 +6°C° 0.2 mm 9 mps 729 mmHg 62%
    10:00 +6°C° 0.2 mm 9 mps 729 mmHg 60%
    11:00 +7°C° 0.2 mm 9 mps 729 mmHg 59%
    12:00 +7°C° 0.3 mm 8 mps 729 mmHg 58%
    13:00 +7°C° 0.3 mm 8 mps 730 mmHg 57%
    14:00 +7°C° 0.3 mm 8 mps 730 mmHg 57%
    15:00 +8°C° 0.2 mm 7 mps 730 mmHg 57%
    16:00 +8°C° 0.2 mm 7 mps 730 mmHg 58%
    17:00 +8°C° 0.2 mm 6 mps 731 mmHg 59%
    18:00 +7°C° 0.1 mm 5 mps 731 mmHg 64%
    19:00 +5°C° 0.1 mm 4 mps 732 mmHg 69%
    20:00 +4°C° 0.1 mm 3 mps 732 mmHg 73%
    21:00 +4°C° 0 mm 3 mps 733 mmHg 74%
    22:00 +4°C° 0 mm 3 mps 733 mmHg 75%
    23:00 +3°C° 0 mm 3 mps 733 mmHg 75%

    Day after tomorrow, 23 April, Monday

    Time Temperature Precipitation Wind Pressure Humidity
    00:00 +3°C° 0 mm 3 mps 734 mmHg 76%
    01:00 +3°C° 0 mm 3 mps 734 mmHg 76%
    02:00 +2°C° 0 mm 3 mps 734 mmHg 76%
    03:00 +2°C° 0 mm 3 mps 735 mmHg 76%
    04:00 +1°C° 0 mm 3 mps 735 mmHg 76%
    05:00 -1°C° 0 mm 4 mps 736 mmHg 75%
    06:00 0°C° 0 mm 4 mps 736 mmHg 68%
    07:00 0°C° 0 mm 5 mps 737 mmHg 60%
    08:00 +1°C° 0 mm 5 mps 737 mmHg 52%
    09:00 +2°C° 0 mm 5 mps 737 mmHg 50%
    10:00 +3°C° 0 mm 5 mps 737 mmHg 47%
    11:00 +3°C° 0 mm 5 mps 738 mmHg 45%
    12:00 +5°C° 0 mm 5 mps 738 mmHg 44%
    13:00 +5°C° 0 mm 5 mps 738 mmHg 43%
    14:00 +6°C° 0 mm 4 mps 738 mmHg 41%
    15:00 +6°C° 0 mm 4 mps 738 mmHg 41%
    16:00 +6°C° 0 mm 4 mps 738 mmHg 42%
    17:00 +6°C° 0 mm 4 mps 738 mmHg 42%
    18:00 +5°C° 0 mm 3 mps 739 mmHg 46%
    19:00 +5°C° 0 mm 2 mps 739 mmHg 50%
    20:00 +5°C° 0 mm 1 mps 739 mmHg 54%
    21:00 +4°C° 0 mm 1 mps 739 mmHg 55%
    22:00 +4°C° 0 mm 1 mps 740 mmHg 57%
    23:00 +3°C° 0 mm 1 mps 740 mmHg 58%

    24 April, Tuesday

    Time Temperature Precipitation Wind Pressure Humidity
    00:00 +3°C° 0 mm 1 mps 740 mmHg 59%
    01:00 +2°C° 0 mm 1 mps 740 mmHg 60%
    02:00 +1°C° 0 mm 0 mps 740 mmHg 61%
    03:00 +2°C° 0 mm 1 mps 740 mmHg 61%
    04:00 +2°C° 0 mm 1 mps 740 mmHg 61%
    05:00 +2°C° 0 mm 1 mps 741 mmHg 62%
    06:00 +4°C° 0 mm 1 mps 741 mmHg 57%
    07:00 +4°C° 0 mm 2 mps 741 mmHg 52%
    08:00 +6°C° 0 mm 2 mps 741 mmHg 47%
    09:00 +7°C° 0 mm 2 mps 741 mmHg 45%
    10:00 +8°C° 0 mm 3 mps 740 mmHg 42%
    11:00 +9°C° 0 mm 3 mps 740 mmHg 40%
    12:00 +8°C° 0 mm 4 mps 740 mmHg 41%
    13:00 +10°C° 0 mm 4 mps 739 mmHg 42%
    14:00 +10°C° 0 mm 4 mps 739 mmHg 42%
    15:00 +10°C° 0 mm 4 mps 738 mmHg 47%
    16:00 +8°C° 0 mm 4 mps 738 mmHg 51%
    17:00 +8°C° 0 mm 4 mps 738 mmHg 55%
    18:00 +7°C° 0.4 mm 4 mps 737 mmHg 61%
    19:00 +6°C° 0.4 mm 4 mps 737 mmHg 68%
    20:00 +5°C° 0.4 mm 4 mps 737 mmHg 74%
    21:00 +5°C° 0.5 mm 4 mps 736 mmHg 77%
    22:00 +5°C° 0.5 mm 5 mps 736 mmHg 81%
    23:00 +3°C° 0.5 mm 5 mps 735 mmHg 84%

    25 April, Wednesday

    Time Temperature Precipitation Wind Pressure Humidity
    00:00 +3°C° 0.3 mm 5 mps 735 mmHg 86%
    01:00 +3°C° 0.3 mm 5 mps 735 mmHg 88%
    02:00 +4°C° 0.3 mm 4 mps 734 mmHg 90%
    03:00 +4°C° 0.1 mm 4 mps 734 mmHg 91%
    04:00 +5°C° 0.1 mm 4 mps 734 mmHg 92%
    05:00 +5°C° 0.1 mm 4 mps 733 mmHg 94%
    06:00 +5°C° 0.1 mm 4 mps 733 mmHg 92%
    07:00 +6°C° 0.1 mm 4 mps 733 mmHg 90%
    08:00 +6°C° 0.1 mm 4 mps 733 mmHg 89%
    09:00 +8°C° 0.1 mm 5 mps 733 mmHg 83%
    10:00 +9°C° 0.1 mm 6 mps 733 mmHg 78%
    11:00 +10°C° 0.1 mm 7 mps 733 mmHg 72%
    12:00 +10°C° 0.1 mm 7 mps 733 mmHg 73%
    13:00 +10°C° 0.1 mm 7 mps 732 mmHg 73%
    14:00 +11°C° 0.1 mm 8 mps 732 mmHg 74%
    15:00 +11°C° 0.3 mm 7 mps 732 mmHg 73%
    16:00 +11°C° 0.3 mm 7 mps 732 mmHg 71%
    17:00 +11°C° 0.3 mm 7 mps 732 mmHg 70%
    18:00 +10°C° 0.1 mm 6 mps 732 mmHg 72%
    19:00 +9°C° 0.1 mm 5 mps 733 mmHg 75%
    20:00 +7°C° 0.1 mm 4 mps 733 mmHg 77%
    21:00 +7°C° 0 mm 4 mps 733 mmHg 78%
    22:00 +7°C° 0 mm 4 mps 733 mmHg 80%
    23:00 +7°C° 0 mm 4 mps 733 mmHg 81%

    26 April, Thursday

    Time Temperature Precipitation Wind Pressure Humidity
    00:00 +7°C° 0 mm 4 mps 733 mmHg 83%
    01:00 +6°C° 0 mm 4 mps 733 mmHg 86%
    02:00 +7°C° 0 mm 3 mps 733 mmHg 89%
    03:00 +7°C° 0 mm 3 mps 733 mmHg 91%
    04:00 +7°C° 0 mm 3 mps 733 mmHg 93%
    05:00 +5°C° 0 mm 3 mps 733 mmHg 95%
    06:00 +8°C° 0.1 mm 3 mps 733 mmHg 92%
    07:00 +9°C° 0.1 mm 3 mps 733 mmHg 88%
    08:00 +10°C° 0.1 mm 3 mps 733 mmHg 85%
    09:00 +10°C° 0.6 mm 2 mps 733 mmHg 86%
    10:00 +10°C° 0.6 mm 2 mps 733 mmHg 87%
    11:00 +10°C° 0.6 mm 2 mps 733 mmHg 88%
    12:00 +10°C° 0.2 mm 2 mps 733 mmHg 86%
    13:00 +10°C° 0.2 mm 3 mps 733 mmHg 84%
    14:00 +11°C° 0.2 mm 3 mps 733 mmHg 82%
    15:00 +11°C° 0 mm 3 mps 733 mmHg 78%
    16:00 +12°C° 0 mm 3 mps 733 mmHg 74%
    17:00 +12°C° 0 mm 4 mps 733 mmHg 69%
    18:00 +11°C° 0 mm 3 mps 734 mmHg 74%
    19:00 +10°C° 0 mm 3 mps 734 mmHg 79%
    20:00 +8°C° 0 mm 3 mps 735 mmHg 83%
    21:00 +8°C° 0 mm 2 mps 735 mmHg 84%
    22:00 +7°C° 0 mm 2 mps 735 mmHg 84%
    23:00 +7°C° 0 mm 2 mps 736 mmHg 85%
    Show more